1508698800.91,62371,11.81,73234.5,-1.21,-2.07,-2.07,0,*53
1508698802.16,62372,11.81,73232.8,-1.21,-2.07,-2.11,0,*57
1508698803.43,62373,11.81,73234.8,-1.19,-2.07,-2.03,0,*5E
1508698804.7,62374,11.81,73238.3,-1.19,-2.07,-2.07,0,*5D
1508698805.92,62375,11.81,73232.3,-1.21,-2.19,-2.11,0,*5F
1508698807.17,62376,11.81,73234.3,-1.21,-2.11,-2.11,0,*54
1508698808.41,62377,11.81,73236.3,-1.21,-2.07,-2.11,0,*52
1508698809.66,62378,11.81,73238.5,-1.21,-2.07,-1.99,0,*5E
1508698810.92,62379,11.81,73234.5,-1.21,-1.99,-1.99,0,*5B
1508698812.17,62380,11.81,73234.5,-1.21,-1.99,-1.99,0,*5D
1508698813.42,62381,11.81,73236.8,-1.21,-1.99,-1.99,0,*5C
1508698814.68,62382,11.81,73238.0,-1.21,-1.99,-2.07,0,*5B
1508698815.93,62383,11.81,73236.8,-1.21,-1.99,-1.99,0,*5E
1508698817.18,62384,11.81,73238.5,-1.21,-1.99,-1.99,0,*59
1508698818.44,62385,11.81,73236.3,-1.21,-1.99,-1.99,0,*58
1508698819.7,62386,11.81,73236.3,-1.19,-1.95,-1.95,0,*50
1508698820.95,62387,11.81,73236.5,-1.21,-1.99,-1.99,0,*5A
1508698822.22,62388,11.81,73232.0,-1.19,-1.95,-1.91,0,*5A
1508698823.45,62389,11.81,73238.8,-1.21,-1.95,-1.95,0,*54
1508698824.72,62390,11.81,73236.8,-1.19,-1.95,-1.91,0,*53
1508698825.95,62391,11.81,73236.0,-1.21,-1.95,-1.95,0,*5D
1508698827.2,62392,11.81,73236.8,-1.21,-1.99,-1.95,0,*52
1508698828.44,62393,11.81,73238.5,-1.21,-1.99,-1.95,0,*53
1508698829.68,62394,11.81,73232.5,-1.21,-1.99,-1.95,0,*54
1508698830.92,62395,11.81,73232.3,-1.21,-1.95,-1.95,0,*59
1508698832.17,62396,11.81,73232.5,-1.21,-2.07,-1.99,0,*5E
1508698833.42,62397,11.81,73234.8,-1.21,-2.07,-2.07,0,*5B
1508698834.68,62398,11.81,73236.3,-1.19,-1.95,-1.95,0,*5F
1508698835.93,62399,11.81,73232.3,-1.21,-1.99,-1.99,0,*55
1508698837.18,62400,11.81,73238.3,-1.21,-1.99,-1.99,0,*52
1508698838.45,62401,11.81,73238.5,-1.19,-1.91,-1.91,0,*58
1508698839.69,62402,11.81,73234.8,-1.21,-1.95,-1.91,0,*54
1508698840.93,62403,11.81,73232.3,-1.21,-1.95,-1.95,0,*51
1508698842.17,62404,11.81,73236.5,-1.21,-2.07,-1.95,0,*5E
1508698843.43,62405,11.81,73236.5,-1.19,-1.95,-1.95,0,*5C
1508698844.69,62406,11.81,73234.5,-1.19,-1.95,-1.95,0,*5F
1508698845.94,62407,11.81,73236.5,-1.21,-1.99,-2.07,0,*51
1508698847.19,62408,11.81,73238.5,-1.21,-2.07,-1.99,0,*5E
1508698848.45,62409,11.81,73236.5,-1.19,-2.03,-1.95,0,*5C
1508698849.73,62410,11.81,73234.5,-1.19,-2.07,-2.07,0,*58
1508698850.94,62411,11.81,73232.8,-1.21,-2.19,-2.11,0,*5A
1508698852.21,62412,11.81,73236.8,-1.19,-2.03,-1.95,0,*56
1508698853.46,62413,11.81,73236.8,-1.21,-2.07,-2.07,0,*50
1508698854.71,62414,11.81,73236.0,-1.21,-1.99,-1.99,0,*57
1508698855.97,62415,11.81,73236.8,-1.19,-1.95,-1.95,0,*5D
1508698857.19,62416,11.81,73238.3,-1.21,-2.19,-2.07,0,*5A
1508698858.44,62417,11.81,73234.8,-1.21,-2.11,-2.07,0,*53
1508698859.69,62418,11.81,73236.3,-1.21,-2.07,-2.07,0,*5B
1508698860.94,62419,11.81,73238.5,-1.21,-2.07,-2.07,0,*5A
1508698862.19,62420,11.81,73236.3,-1.21,-2.07,-1.99,0,*54
1508698863.45,62421,11.81,73232.0,-1.19,-2.03,-1.95,0,*56
1508698864.71,62422,11.81,73232.5,-1.21,-1.99,-1.99,0,*52
1508698865.96,62423,11.81,73236.0,-1.21,-2.07,-2.07,0,*53
1508698867.21,62424,11.81,73232.8,-1.21,-1.99,-1.99,0,*54
1508698868.46,62425,11.81,73232.5,-1.21,-2.03,-1.99,0,*55
1508698869.71,62426,11.81,73234.5,-1.21,-1.99,-1.99,0,*56
1508698870.96,62427,11.81,73234.8,-1.21,-2.07,-2.07,0,*57
1508698872.21,62428,11.81,73236.5,-1.21,-2.07,-2.11,0,*5F
1508698873.46,62429,11.81,73234.5,-1.21,-2.11,-2.11,0,*59
1508698874.71,62430,11.81,73232.3,-1.21,-2.07,-1.99,0,*55
1508698875.96,62431,11.81,73234.0,-1.21,-2.07,-2.07,0,*50
1508698877.21,62432,11.81,73234.5,-1.21,-2.11,-2.11,0,*53
1508698878.46,62433,11.81,73236.3,-1.21,-2.07,-2.07,0,*52
1508698879.71,62434,11.81,73232.3,-1.21,-1.99,-2.07,0,*51
1508698880.96,62435,11.81,73236.5,-1.21,-1.99,-1.99,0,*54
1508698882.21,62436,11.81,73234.0,-1.21,-1.99,-2.07,0,*53
1508698883.46,62437,11.81,73234.8,-1.21,-2.07,-2.07,0,*56
1508698884.72,62438,11.81,73236.5,-1.21,-1.99,-1.99,0,*59
1508698885.97,62439,11.81,73238.0,-1.21,-1.99,-2.07,0,*5C
1508698887.22,62440,11.81,73234.0,-1.21,-2.07,-2.07,0,*56
1508698888.47,62441,11.81,73236.0,-1.21,-1.99,-1.99,0,*57
1508698889.73,62442,11.81,73234.8,-1.21,-1.99,-1.99,0,*54
1508698890.98,62443,11.81,73234.8,-1.21,-1.99,-1.99,0,*55
1508698892.23,62444,11.81,73238.8,-1.21,-1.99,-2.07,0,*56
1508698893.49,62445,11.81,73238.3,-1.21,-1.99,-1.99,0,*53
1508698894.74,62446,11.81,73236.3,-1.21,-1.99,-1.99,0,*50
1508698895.99,62447,11.81,73238.0,-1.21,-1.99,-1.99,0,*51
1508698897.25,62448,11.81,73238.5,-1.21,-1.99,-2.07,0,*5A
1508698898.5,62449,11.81,73232.5,-1.21,-1.99,-1.99,0,*5F
1508698899.75,62450,11.81,73234.8,-1.21,-1.99,-1.99,0,*57
1508698900.99,62451,11.81,73236.8,-1.21,-2.03,-1.95,0,*5A
1508698902.21,62452,11.81,73236.3,-1.21,-2.19,-2.07,0,*5A
1508698903.47,62453,11.81,73232.3,-1.21,-2.11,-2.07,0,*53
1508698904.71,62454,11.81,73236.8,-1.21,-2.07,-2.07,0,*53
1508698905.99,62455,11.81,73232.0,-1.23,-2.03,-2.03,0,*50
1508698907.26,62456,11.81,73232.8,-1.23,-2.11,-2.03,0,*50
1508698908.52,62457,11.81,73236.0,-1.21,-1.99,-1.99,0,*50
1508698909.77,62458,11.81,73236.3,-1.21,-1.99,-1.99,0,*5F
1508698911.02,62459,11.81,73238.8,-1.21,-1.99,-1.99,0,*5E
1508698912.27,62460,11.81,73236.3,-1.21,-2.07,-1.99,0,*50
1508698913.55,62461,11.81,73238.5,-1.23,-2.03,-2.03,0,*57
1508698914.8,62462,11.81,73234.5,-1.21,-1.99,-1.99,0,*56
1508698916.05,62463,11.81,73236.3,-1.21,-1.99,-1.99,0,*57
1508698917.3,62464,11.81,73236.8,-1.21,-2.07,-2.07,0,*50
1508698918.55,62465,11.81,73240.8,-1.21,-2.07,-1.99,0,*55
1508698919.81,62466,11.81,73238.8,-1.19,-1.91,-1.95,0,*5D
1508698921.07,62467,11.81,73236.3,-1.21,-1.99,-1.99,0,*53
1508698922.32,62468,11.81,73234.3,-1.21,-1.99,-1.99,0,*5C
1508698923.57,62469,11.81,73236.0,-1.21,-2.07,-1.99,0,*59
1508698924.81,62470,11.81,73236.5,-1.21,-1.95,-1.95,0,*55
1508698926.06,62471,11.81,73236.5,-1.21,-1.99,-1.99,0,*54
1508698927.31,62472,11.81,73236.0,-1.21,-1.99,-1.99,0,*57
1508698928.57,62473,11.81,73238.3,-1.21,-1.99,-1.99,0,*56
1508698929.82,62474,11.81,73236.0,-1.21,-2.07,-1.99,0,*55
1508698931.08,62475,11.81,73232.3,-1.19,-1.95,-1.91,0,*5F
1508698932.32,62476,11.81,73236.8,-1.21,-1.99,-1.95,0,*5F
1508698933.57,62477,11.81,73238.0,-1.21,-1.99,-1.95,0,*5E
1508698934.82,62478,11.81,73234.8,-1.21,-2.07,-2.07,0,*5D
1508698936.07,62479,11.81,73238.3,-1.21,-1.99,-1.99,0,*5C
1508698937.32,62480,11.81,73236.3,-1.21,-2.07,-2.07,0,*5A
1508698938.57,62481,11.81,73238.0,-1.21,-2.07,-2.07,0,*5B
1508698939.83,62482,11.81,73234.8,-1.19,-2.03,-1.95,0,*5F
1508698941.09,62483,11.81,73234.3,-1.21,-1.99,-1.99,0,*59
1508698942.35,62484,11.81,73236.5,-1.19,-1.95,-1.95,0,*55
1508698943.59,62485,11.81,73232.8,-1.21,-2.07,-2.11,0,*58
1508698944.81,62486,11.81,73232.8,-1.21,-2.19,-2.11,0,*54
1508698946.0,62487,11.81,73236.0,-1.21,-2.19,-2.19,0,*5D
1508698947.25,62488,11.81,73236.5,-1.21,-2.11,-2.11,0,*52
1508698948.5,62489,11.81,73234.8,-1.21,-2.07,-2.07,0,*53
1508698949.75,62490,11.81,73234.3,-1.21,-1.99,-2.07,0,*5F
1508698951.0,62491,11.81,73234.8,-1.21,-2.07,-2.07,0,*5A
1508698952.25,62492,11.81,73234.8,-1.21,-2.07,-2.07,0,*59
1508698953.5,62493,11.81,73236.0,-1.21,-1.99,-2.07,0,*5C
1508698954.76,62494,11.81,73236.3,-1.21,-1.99,-2.07,0,*5B
1508698956.01,62495,11.81,73234.5,-1.21,-1.99,-2.07,0,*5A
1508698957.23,62496,11.81,73234.8,-1.21,-2.11,-2.19,0,*55
1508698958.48,62497,11.81,73238.5,-1.21,-2.11,-2.11,0,*5C
1508698959.73,62498,11.81,73234.0,-1.21,-2.11,-2.07,0,*54
1508698960.95,62499,11.81,73236.0,-1.21,-2.19,-2.07,0,*5D
1508698962.2,62500,11.81,73232.0,-1.21,-2.07,-2.07,0,*53
1508698963.42,62501,11.81,73238.5,-1.23,-2.15,-2.15,0,*50
1508698964.67,62502,11.81,73236.8,-1.23,-2.03,-2.15,0,*54
1508698965.92,62503,11.81,73234.8,-1.23,-2.11,-2.23,0,*53
1508698967.14,62504,11.81,73238.8,-1.23,-2.23,-2.23,0,*55
1508698968.39,62505,11.81,73232.8,-1.21,-2.11,-2.11,0,*56
1508698969.64,62506,11.81,73238.5,-1.21,-2.11,-2.11,0,*55
1508698970.86,62507,11.81,73236.0,-1.23,-2.15,-2.15,0,*56
1508698972.13,62508,11.81,73236.0,-1.23,-2.03,-2.11,0,*5A
1508698973.41,62509,11.81,73234.3,-1.23,-2.11,-2.11,0,*58
1508698974.68,62510,11.81,73234.8,-1.23,-2.11,-2.11,0,*50
1508698975.94,62511,11.81,73236.3,-1.23,-2.11,-2.15,0,*55
1508698977.18,62512,11.81,73234.3,-1.21,-2.07,-1.99,0,*54
1508698978.46,62513,11.81,73232.0,-1.23,-2.03,-2.11,0,*50
1508698979.73,62514,11.81,73236.5,-1.23,-2.03,-2.11,0,*57
1508698981.01,62515,11.81,73234.8,-1.23,-2.03,-2.03,0,*55
1508698982.28,62516,11.81,73232.0,-1.23,-2.03,-2.03,0,*56
1508698983.55,62517,11.81,73234.3,-1.23,-2.03,-2.03,0,*57
1508698984.83,62518,11.81,73234.5,-1.23,-2.03,-2.03,0,*58
1508698986.1,62519,11.81,73236.5,-1.23,-2.11,-2.11,0,*59
1508698987.32,62520,11.81,73232.3,-1.23,-2.23,-2.15,0,*56
1508698988.56,62521,11.81,73238.8,-1.23,-2.23,-2.11,0,*53
1508698989.81,62522,11.81,73236.0,-1.21,-2.11,-2.11,0,*53
1508698991.06,62523,11.81,73234.0,-1.23,-2.15,-2.11,0,*54
1508698992.33,62524,11.81,73236.0,-1.23,-2.11,-2.03,0,*54
1508698993.61,62525,11.81,73234.8,-1.23,-2.03,-2.03,0,*56
1508698994.88,62526,11.81,73234.0,-1.23,-2.03,-2.03,0,*55
1508698996.15,62527,11.81,73232.8,-1.23,-2.03,-2.03,0,*54
1508698997.43,62528,11.81,73236.3,-1.23,-2.03,-2.03,0,*5B
1508698998.7,62529,11.81,73234.5,-1.23,-2.03,-2.03,0,*5A
1508698999.98,62530,11.81,73234.8,-1.23,-2.03,-2.11,0,*51
1508699001.25,62531,11.81,73234.8,-1.23,-2.03,-2.03,0,*53
1508699002.5,62532,11.81,73234.3,-1.21,-2.07,-1.99,0,*56
1508699003.75,62533,11.81,73234.0,-1.21,-1.99,-1.99,0,*53
1508699005.0,62534,11.81,73232.3,-1.21,-2.07,-1.99,0,*50
1508699006.26,62535,11.81,73234.8,-1.21,-1.99,-1.99,0,*55
1508699007.51,62536,11.81,73234.8,-1.21,-1.99,-1.99,0,*56
1508699008.76,62537,11.81,73232.8,-1.21,-1.99,-1.99,0,*57
1508699010.02,62538,11.81,73236.0,-1.21,-1.99,-1.99,0,*58
1508699011.27,62539,11.81,73232.0,-1.21,-2.11,-2.07,0,*5E
1508699012.52,62540,11.81,73234.5,-1.21,-2.11,-2.07,0,*50
1508699013.77,62541,11.81,73232.5,-1.21,-2.07,-1.99,0,*52
1508699015.02,62542,11.81,73234.3,-1.21,-1.99,-1.99,0,*55
1508699016.27,62543,11.81,73232.5,-1.21,-1.99,-2.07,0,*50
1508699017.53,62544,11.81,73234.0,-1.21,-1.99,-1.99,0,*53
1508699018.78,62545,11.81,73236.5,-1.21,-2.07,-1.99,0,*56
1508699020.03,62546,11.81,73234.0,-1.21,-1.99,-1.99,0,*51
1508699021.28,62547,11.81,73232.0,-1.21,-1.99,-1.99,0,*50
1508699022.54,62548,11.81,73236.5,-1.21,-1.99,-1.99,0,*5F
1508699023.81,62549,11.81,73234.0,-1.23,-2.03,-2.11,0,*5F
1508699025.09,62550,11.81,73234.5,-1.23,-2.03,-2.03,0,*54
1508699026.36,62551,11.81,73236.5,-1.23,-2.11,-2.11,0,*55
1508699027.61,62552,11.81,73234.8,-1.21,-2.07,-2.07,0,*54
1508699028.89,62553,11.81,73234.5,-1.23,-2.11,-2.03,0,*54
1508699030.16,62554,11.81,73232.8,-1.23,-2.11,-2.03,0,*53
1508699031.44,62555,11.81,73236.3,-1.23,-2.03,-2.03,0,*51
1508699032.71,62556,11.81,73234.8,-1.23,-2.03,-2.03,0,*52
1508699033.95,62557,11.81,73234.3,-1.25,-2.03,-2.03,0,*55
1508699035.23,62558,11.81,73232.8,-1.23,-2.03,-2.03,0,*5C
1508699036.5,62559,11.81,73234.5,-1.23,-2.11,-2.11,0,*5D
1508699037.78,62560,11.81,73232.8,-1.23,-2.11,-2.03,0,*54
1508699039.05,62561,11.81,73236.3,-1.23,-2.03,-2.11,0,*55
1508699040.33,62562,11.81,73232.8,-1.23,-2.11,-2.11,0,*55
1508699041.54,62563,11.81,73232.3,-1.25,-2.15,-2.11,0,*56
1508699042.82,62564,11.81,73230.0,-1.23,-2.03,-2.03,0,*53
1508699044.09,62565,11.81,73236.5,-1.23,-2.03,-2.03,0,*52
1508699045.36,62566,11.81,73232.3,-1.23,-2.03,-2.03,0,*51
1508699046.62,62567,11.81,73236.0,-1.21,-1.99,-1.99,0,*52
1508699047.89,62568,11.81,73234.5,-1.23,-2.03,-2.03,0,*5F
1508699049.16,62569,11.81,73236.5,-1.23,-2.03,-2.03,0,*5E
1508699050.44,62570,11.81,73232.5,-1.23,-2.03,-2.03,0,*56
1508699051.71,62571,11.81,73236.3,-1.23,-2.11,-2.11,0,*57
1508699052.99,62572,11.81,73234.5,-1.23,-2.03,-2.03,0,*54
1508699054.26,62573,11.81,73236.5,-1.23,-2.03,-1.99,0,*55
1508699055.54,62574,11.81,73234.8,-1.23,-2.03,-1.99,0,*52
1508699056.78,62575,11.81,73236.3,-1.21,-1.95,-1.95,0,*51
1508699058.03,62576,11.81,73232.3,-1.21,-1.99,-1.99,0,*52
1508699059.28,62577,11.81,73232.8,-1.21,-1.99,-2.07,0,*57
1508699060.5,62578,11.81,73232.3,-1.21,-2.07,-2.19,0,*53
1508699061.78,62579,11.81,73228.0,-1.23,-2.03,-2.03,0,*5F
1508699063.02,62580,11.81,73234.0,-1.25,-2.11,-2.11,0,*5F
1508699064.3,62581,11.81,73234.0,-1.23,-2.03,-2.03,0,*58
1508699065.57,62582,11.81,73228.0,-1.23,-2.03,-1.99,0,*5B
1508699066.82,62583,11.81,73232.8,-1.21,-1.99,-1.95,0,*54
1508699068.09,62584,11.81,73234.0,-1.23,-1.99,-1.95,0,*51
1508699069.36,62585,11.81,73232.3,-1.23,-1.99,-1.95,0,*50
1508699070.63,62586,11.81,73232.5,-1.23,-1.99,-1.95,0,*53
1508699071.88,62587,11.81,73234.3,-1.25,-1.99,-1.99,0,*58
1508699073.16,62588,11.81,73236.5,-1.23,-1.99,-1.99,0,*51
1508699074.44,62589,11.81,73234.8,-1.23,-1.99,-1.99,0,*50
1508699075.71,62590,11.81,73232.8,-1.23,-2.03,-2.03,0,*58
1508699076.99,62591,11.81,73232.3,-1.23,-2.03,-2.03,0,*59
1508699078.23,62592,11.81,73234.8,-1.21,-1.95,-1.99,0,*54
1508699079.47,62593,11.81,73234.3,-1.21,-1.95,-1.91,0,*5D
1508699080.71,62594,11.81,73232.0,-1.21,-1.95,-1.95,0,*5E
1508699081.95,62595,11.81,73234.5,-1.21,-1.95,-1.91,0,*5B
1508699083.22,62596,11.81,73232.3,-1.19,-1.91,-1.91,0,*57
1508699084.46,62597,11.81,73234.0,-1.21,-1.99,-1.95,0,*51
1508699085.7,62598,11.81,73232.3,-1.21,-1.99,-1.95,0,*5E
1508699086.95,62599,11.81,73232.0,-1.21,-1.95,-1.91,0,*57
1508699088.18,62600,11.81,73232.0,-1.21,-1.91,-1.95,0,*54
1508699089.42,62601,11.81,73232.5,-1.21,-1.95,-1.95,0,*51
1508699090.66,62602,11.81,73232.5,-1.21,-1.99,-1.95,0,*5E
1508699091.9,62603,11.81,73236.3,-1.21,-1.99,-1.95,0,*5F
1508699093.16,62604,11.81,73232.5,-1.21,-2.11,-2.07,0,*53
1508699094.41,62605,11.81,73232.3,-1.21,-2.11,-2.07,0,*52
1508699095.66,62606,11.81,73234.3,-1.21,-1.99,-1.99,0,*56
1508699096.91,62607,11.81,73234.5,-1.21,-1.95,-1.99,0,*5B
1508699098.16,62608,11.81,73232.8,-1.21,-2.07,-2.07,0,*58
1508699099.39,62609,11.81,73234.5,-1.21,-1.95,-1.95,0,*59
1508699100.64,62610,11.81,73230.3,-1.21,-1.99,-1.95,0,*5D
1508699101.88,62611,11.81,73234.8,-1.21,-1.99,-1.95,0,*5C
1508699103.13,62612,11.81,73232.3,-1.21,-1.95,-1.99,0,*5F
1508699104.37,62613,11.81,73232.3,-1.21,-2.07,-2.07,0,*52
1508699105.62,62614,11.81,73232.3,-1.21,-2.07,-2.03,0,*51
1508699106.87,62615,11.81,73232.5,-1.21,-2.07,-2.07,0,*54
1508699108.12,62616,11.81,73232.3,-1.21,-2.07,-1.99,0,*53
1508699109.37,62617,11.81,73228.3,-1.21,-1.99,-1.99,0,*56
1508699110.63,62618,11.81,73230.8,-1.21,-2.11,-1.99,0,*5A
1508699111.88,62619,11.81,73230.8,-1.21,-2.07,-2.07,0,*58
1508699113.15,62620,11.81,73228.3,-1.23,-2.11,-2.03,0,*53
1508699114.4,62621,11.81,73228.5,-1.21,-2.07,-1.99,0,*57
1508699115.65,62622,11.81,73228.8,-1.21,-2.07,-1.99,0,*54
1508699116.91,62623,11.81,73228.0,-1.21,-1.99,-1.99,0,*51
1508699118.18,62624,11.81,73232.3,-1.19,-2.03,-2.03,0,*5D
1508699119.42,62625,11.81,73232.3,-1.21,-2.07,-2.11,0,*50
1508699120.67,62626,11.81,73232.5,-1.21,-2.11,-2.11,0,*54
1508699121.93,62627,11.81,73230.0,-1.21,-1.99,-2.07,0,*51
1508699123.17,62628,11.81,73230.3,-1.21,-2.07,-2.07,0,*5A
1508699124.43,62629,11.81,73228.3,-1.21,-1.99,-1.99,0,*5B
1508699125.62,62630,11.81,73232.5,-1.21,-2.19,-2.19,0,*53
1508699126.87,62631,11.81,73230.3,-1.21,-2.11,-2.11,0,*52
1508699128.06,62632,11.81,73230.0,-1.21,-2.19,-2.19,0,*51
1508699129.31,62633,11.81,73228.3,-1.21,-2.11,-2.07,0,*57
1508699130.56,62634,11.81,73228.8,-1.21,-2.11,-2.07,0,*50
1508699131.82,62635,11.81,73228.8,-1.21,-2.11,-2.07,0,*51
1508699133.07,62636,11.81,73230.0,-1.21,-2.11,-2.07,0,*52
1508699134.32,62637,11.81,73226.8,-1.21,-2.07,-1.99,0,*50
1508699135.57,62638,11.81,73230.5,-1.21,-1.99,-1.99,0,*5B
1508699136.82,62639,11.81,73230.0,-1.21,-1.99,-1.99,0,*5A
1508699138.07,62640,11.81,73228.5,-1.21,-2.07,-1.99,0,*50
1508699139.33,62641,11.81,73230.0,-1.21,-1.99,-1.99,0,*55
1508699140.58,62642,11.81,73230.0,-1.21,-1.99,-1.99,0,*56
1508699141.85,62643,11.81,73232.3,-1.23,-2.03,-2.03,0,*55
1508699143.13,62644,11.81,73232.0,-1.23,-2.03,-2.03,0,*52
1508699144.4,62645,11.81,73232.0,-1.23,-2.03,-2.03,0,*53
1508699145.65,62646,11.81,73234.3,-1.21,-1.99,-2.07,0,*56
1508699146.91,62647,11.81,73230.5,-1.21,-1.99,-1.99,0,*53
1508699148.17,62648,11.81,73230.3,-1.19,-1.95,-1.95,0,*57
1508699149.42,62649,11.81,73228.5,-1.21,-1.99,-1.99,0,*5D
1508699150.67,62650,11.81,73230.3,-1.21,-1.99,-1.99,0,*55
1508699151.93,62651,11.81,73234.8,-1.21,-1.99,-1.99,0,*54
1508699153.18,62652,11.81,73230.5,-1.21,-1.99,-1.99,0,*57
1508699154.43,62653,11.81,73232.8,-1.21,-1.99,-1.99,0,*56
1508699155.69,62654,11.81,73232.3,-1.21,-1.99,-1.99,0,*51
1508699156.94,62655,11.81,73232.3,-1.21,-1.99,-1.99,0,*50
1508699158.19,62656,11.81,73230.3,-1.21,-1.99,-1.99,0,*53
1508699159.47,62657,11.81,73230.3,-1.23,-2.03,-2.03,0,*50
1508699160.72,62658,11.81,73230.0,-1.21,-1.99,-1.99,0,*5D
1508699161.98,62659,11.81,73228.8,-1.19,-1.91,-1.95,0,*53
1508699163.23,62660,11.81,73228.3,-1.21,-1.95,-1.99,0,*5A
1508699164.49,62661,11.81,73228.3,-1.19,-1.91,-1.95,0,*58
1508699165.74,62662,11.81,73234.8,-1.21,-2.07,-2.07,0,*54
1508699166.99,62663,11.81,73230.3,-1.21,-2.11,-2.07,0,*52
1508699168.24,62664,11.81,73228.3,-1.21,-1.99,-2.07,0,*56
1508699169.49,62665,11.81,73230.0,-1.21,-2.07,-2.07,0,*53
1508699170.71,62666,11.81,73228.5,-1.21,-2.19,-2.07,0,*5F
1508699171.96,62667,11.81,73230.0,-1.21,-2.07,-2.07,0,*51
1508699173.21,62668,11.81,73228.8,-1.21,-2.11,-2.11,0,*5E
1508699174.46,62669,11.81,73226.0,-1.21,-2.07,-2.07,0,*5F
1508699175.71,62670,11.81,73232.8,-1.21,-2.07,-2.07,0,*57
1508699176.98,62671,11.81,73230.3,-1.23,-2.03,-2.03,0,*54
1508699178.26,62672,11.81,73232.3,-1.23,-2.11,-2.03,0,*54
1508699179.53,62673,11.81,73230.0,-1.23,-2.03,-2.11,0,*55
1508699180.78,62674,11.81,73228.3,-1.21,-1.99,-1.99,0,*53
1508699182.04,62675,11.81,73230.3,-1.19,-1.95,-1.95,0,*59
1508699183.32,62676,11.81,73228.3,-1.23,-2.11,-2.03,0,*50
1508699184.57,62677,11.81,73232.0,-1.21,-1.99,-1.99,0,*50
1508699185.84,62678,11.81,73228.8,-1.19,-2.03,-1.95,0,*58
1508699187.09,62679,11.81,73230.8,-1.21,-1.99,-1.99,0,*5E
1508699188.34,62680,11.81,73230.5,-1.21,-1.99,-1.99,0,*58
1508699189.59,62681,11.81,73230.8,-1.21,-2.07,-1.99,0,*5D
1508699190.85,62682,11.81,73228.5,-1.21,-1.99,-2.07,0,*5E
1508699192.1,62683,11.81,73230.0,-1.21,-2.07,-2.07,0,*5B
1508699193.37,62684,11.81,73230.5,-1.19,-2.03,-2.11,0,*54
1508699194.62,62685,11.81,73228.3,-1.21,-2.07,-2.07,0,*5D
1508699195.87,62686,11.81,73230.3,-1.21,-2.07,-1.99,0,*5A
1508699197.12,62687,11.81,73226.5,-1.21,-2.07,-1.99,0,*5B
1508699198.36,62688,11.81,73228.8,-1.21,-2.07,-2.07,0,*50
1508699199.61,62689,11.81,73230.5,-1.21,-2.07,-2.11,0,*56
1508699200.86,62690,11.81,73230.5,-1.21,-2.07,-2.07,0,*59
1508699202.11,62691,11.81,73228.3,-1.21,-1.99,-1.99,0,*58
1508699203.37,62692,11.81,73230.8,-1.21,-1.99,-1.99,0,*5B
1508699204.62,62693,11.81,73230.5,-1.21,-2.07,-2.07,0,*5A
1508699205.89,62694,11.81,73230.5,-1.23,-2.03,-2.03,0,*5F
1508699207.17,62695,11.81,73230.8,-1.23,-2.03,-1.99,0,*5E
1508699208.41,62696,11.81,73230.5,-1.21,-1.99,-1.95,0,*53
1508699209.65,62697,11.81,73230.3,-1.21,-1.99,-1.95,0,*52
1508699210.89,62698,11.81,73234.8,-1.21,-2.07,-1.95,0,*59
1508699212.14,62699,11.81,73230.0,-1.21,-2.11,-2.11,0,*50
1508699213.4,62700,11.81,73230.8,-1.21,-2.11,-2.07,0,*56
1508699214.64,62701,11.81,73234.0,-1.21,-1.99,-2.11,0,*53
1508699215.89,62702,11.81,73234.0,-1.21,-2.07,-2.11,0,*54
1508699217.08,62703,11.81,73228.0,-1.25,-2.15,-2.15,0,*56
1508699218.27,62704,11.81,73230.3,-1.21,-2.23,-2.19,0,*5C
1508699219.46,62705,11.81,73224.3,-1.25,-2.15,-2.15,0,*50
1508699220.68,62706,11.81,73228.8,-1.23,-2.15,-2.23,0,*50
1508699221.91,62707,11.81,73230.8,-1.23,-2.23,-2.23,0,*54
1508699223.13,62708,11.81,73228.0,-1.23,-2.15,-2.23,0,*5E
1508699224.35,62709,11.81,73232.5,-1.23,-2.15,-2.15,0,*5A
1508699225.54,62710,11.81,73224.3,-1.25,-2.23,-2.23,0,*54
1508699226.79,62711,11.81,73228.5,-1.23,-2.11,-2.23,0,*52
1508699228.01,62712,11.81,73228.5,-1.23,-2.23,-2.15,0,*55
1508699229.23,62713,11.81,73226.0,-1.23,-2.15,-2.15,0,*51
1508699230.45,62714,11.81,73226.8,-1.23,-2.23,-2.15,0,*53
1508699231.7,62715,11.81,73228.0,-1.23,-2.11,-2.15,0,*53
1508699232.92,62716,11.81,73228.5,-1.23,-2.15,-2.15,0,*54
1508699234.11,62717,11.81,73226.3,-1.25,-2.23,-2.15,0,*56
1508699235.32,62718,11.81,73228.0,-1.25,-2.15,-2.11,0,*58
1508699236.57,62719,11.81,73228.0,-1.25,-2.11,-2.11,0,*5D
1508699237.76,62720,11.81,73226.0,-1.25,-2.15,-2.15,0,*57
1508699239.03,62721,11.81,73226.5,-1.23,-2.11,-2.11,0,*50
1508699240.28,62722,11.81,73230.8,-1.25,-2.11,-2.03,0,*56
1508699241.52,62723,11.81,73228.5,-1.25,-2.03,-2.11,0,*57
1508699242.71,62724,11.81,73226.8,-1.25,-2.15,-2.15,0,*53
1508699243.9,62725,11.81,73224.8,-1.25,-2.23,-2.15,0,*57
1508699245.09,62726,11.81,73230.0,-1.25,-2.23,-2.15,0,*54
1508699246.34,62727,11.81,73226.0,-1.25,-2.11,-2.11,0,*50
1508699247.61,62728,11.81,73228.8,-1.23,-2.11,-2.11,0,*59
1508699248.86,62729,11.81,73230.5,-1.25,-2.03,-2.11,0,*5D
1508699250.13,62730,11.81,73228.0,-1.23,-2.11,-2.03,0,*53
1508699251.38,62731,11.81,73228.0,-1.25,-2.03,-2.03,0,*57
1508699252.62,62732,11.81,73232.8,-1.25,-2.03,-2.03,0,*54
1508699253.89,62733,11.81,73228.3,-1.23,-2.03,-2.03,0,*53
1508699255.17,62734,11.81,73230.0,-1.23,-2.11,-2.11,0,*54
1508699256.36,62735,11.81,73232.5,-1.25,-2.15,-2.23,0,*56
1508699257.61,62736,11.81,73228.3,-1.23,-2.15,-2.11,0,*52
1508699258.88,62737,11.81,73230.5,-1.23,-2.11,-2.03,0,*54
1508699260.16,62738,11.81,73232.5,-1.23,-2.03,-2.03,0,*58
1508699261.41,62739,11.81,73228.3,-1.23,-2.11,-2.15,0,*5D
1508699262.65,62740,11.81,73228.0,-1.25,-2.03,-2.11,0,*52
1508699263.89,62741,11.81,73228.0,-1.25,-2.03,-2.03,0,*50
1508699265.14,62742,11.81,73228.5,-1.25,-2.11,-2.11,0,*53
1508699266.33,62743,11.81,73226.5,-1.25,-2.15,-2.15,0,*52
1508699267.52,62744,11.81,73230.5,-1.25,-2.15,-2.15,0,*55
1508699268.76,62745,11.81,73228.3,-1.23,-2.15,-2.03,0,*55
1508699270.01,62746,11.81,73230.3,-1.25,-2.11,-2.11,0,*57
1508699271.25,62747,11.81,73230.3,-1.25,-2.03,-2.03,0,*56
1508699272.5,62748,11.81,73230.3,-1.25,-2.11,-2.03,0,*5A
1508699273.75,62749,11.81,73228.0,-1.25,-2.11,-2.11,0,*58
1508699274.96,62750,11.81,73228.3,-1.23,-2.15,-2.15,0,*56
1508699276.21,62751,11.81,73228.5,-1.25,-2.11,-2.11,0,*51
1508699277.46,62752,11.81,73226.3,-1.25,-2.11,-2.11,0,*52
1508699278.7,62753,11.81,73226.0,-1.25,-2.11,-2.03,0,*50
1508699279.95,62754,11.81,73230.0,-1.25,-2.03,-2.03,0,*54
1508699281.19,62755,11.81,73228.5,-1.25,-2.11,-2.11,0,*55
1508699282.42,62756,11.81,73230.3,-1.23,-2.15,-2.23,0,*55
1508699283.63,62757,11.81,73228.5,-1.25,-2.15,-2.11,0,*53
1508699284.91,62758,11.81,73228.0,-1.23,-2.11,-2.11,0,*5E
1508699286.15,62759,11.81,73228.3,-1.25,-2.11,-2.11,0,*59
1508699287.34,62760,11.81,73228.0,-1.25,-2.23,-2.15,0,*56
1508699288.56,62761,11.81,73226.0,-1.23,-2.23,-2.15,0,*51
1508699289.75,62762,11.81,73230.0,-1.25,-2.23,-2.15,0,*54
1508699290.97,62763,11.81,73224.0,-1.23,-2.23,-2.23,0,*56
1508699292.16,62764,11.81,73230.5,-1.25,-2.15,-2.15,0,*57
1508699293.35,62765,11.81,73228.3,-1.25,-2.23,-2.15,0,*53
1508699294.54,62766,11.81,73224.8,-1.25,-2.15,-2.15,0,*55
1508699295.73,62767,11.81,73226.0,-1.25,-2.15,-2.15,0,*54
1508699296.95,62768,11.81,73226.8,-1.27,-2.15,-2.15,0,*59
1508699298.16,62769,11.81,73224.5,-1.27,-2.27,-2.27,0,*58
1508699299.38,62770,11.81,73224.0,-1.25,-2.11,-2.15,0,*56
1508699300.57,62771,11.81,73226.5,-1.25,-2.15,-2.15,0,*53
1508699301.76,62772,11.81,73224.0,-1.25,-2.15,-2.15,0,*50
1508699302.95,62773,11.81,73226.8,-1.25,-2.15,-2.15,0,*51
1508699304.2,62774,11.81,73226.0,-1.25,-2.03,-2.03,0,*56
1508699305.47,62775,11.81,73224.3,-1.23,-2.03,-2.03,0,*51
1508699306.68,62776,11.81,73224.0,-1.25,-2.15,-2.11,0,*50
1508699307.9,62777,11.81,73222.8,-1.25,-2.11,-2.15,0,*51
1508699309.1,62778,11.81,73226.0,-1.25,-2.15,-2.23,0,*5F
1508699310.28,62779,11.81,73226.0,-1.25,-2.27,-2.27,0,*5B
1508699311.47,62780,11.81,73230.3,-1.25,-2.27,-2.27,0,*5D
1508699312.66,62781,11.81,73224.5,-1.25,-2.15,-2.15,0,*5C
1508699313.9,62782,11.81,73226.3,-1.25,-2.11,-2.03,0,*5C
1508699315.15,62783,11.81,73228.5,-1.25,-2.11,-2.11,0,*5E
1508699316.37,62784,11.81,73226.0,-1.27,-2.15,-2.15,0,*5B